CPA184 YPPH-VHHH

Flight info

Callsign CPA184
Flight time N/A
Altitude 37000
Route AVNEX Y15 ESDEG/N0474F360 Q587 PADRY/N0468F380 Q587 METUM R592 BLI M522 ELANG/N0470F390 M522 VINIK M754 AKOTA/N0466F400 A583 SABNO V542 BETTY
Aircraft A343/H-SDE2E3FGHIJ4J5M1RWXY/LB1D1

Departure

Time 2026-04-30 05:21
Airport Perth International Airport (YPPH)

Arrival

Time N/A
Airport Hong Kong International Airport (VHHH)
Time Latitude Longitude Altitude Speed Heading
2026-04-30 05:14 -31.93985 115.97230 61 ft 0 kts 204°
2026-04-30 05:15 -31.93987 115.97228 63 ft 3 kts 209°
2026-04-30 05:15 -31.93990 115.97201 63 ft 5 kts 278°
2026-04-30 05:16 -31.93970 115.97157 61 ft 8 kts 300°
2026-04-30 05:16 -31.93941 115.97077 66 ft 11 kts 286°
2026-04-30 05:16 -31.93922 115.96984 67 ft 12 kts 283°
2026-04-30 05:16 -31.93878 115.96910 67 ft 11 kts 345°
2026-04-30 05:17 -31.93802 115.96923 67 ft 12 kts 14°
2026-04-30 05:17 -31.93719 115.96948 67 ft 13 kts 14°
2026-04-30 05:17 -31.93629 115.96974 67 ft 14 kts 14°
2026-04-30 05:17 -31.93526 115.97004 68 ft 18 kts 13°
2026-04-30 05:18 -31.93392 115.97043 67 ft 21 kts 14°
2026-04-30 05:18 -31.93251 115.97084 67 ft 21 kts 13°
2026-04-30 05:18 -31.93109 115.97125 65 ft 22 kts 14°
2026-04-30 05:18 -31.92973 115.97157 67 ft 18 kts 352°
2026-04-30 05:19 -31.92933 115.97073 67 ft 11 kts 275°
2026-04-30 05:19 -31.92912 115.96995 62 ft 13 kts 288°
2026-04-30 05:19 -31.92889 115.96879 65 ft 14 kts 272°
2026-04-30 05:19 -31.92956 115.96819 66 ft 13 kts 195°
2026-04-30 05:20 -31.92992 115.96809 66 ft 1 kts 194°
2026-04-30 05:20 -31.93129 115.96769 66 ft 48 kts 194°
2026-04-30 05:20 -31.93654 115.96616 63 ft 106 kts 194°
2026-04-30 05:20 -31.94530 115.96355 98 ft 151 kts 197°
2026-04-30 05:21 -31.95547 115.96049 720 ft 150 kts 195°
2026-04-30 05:21 -31.96593 115.95750 1262 ft 161 kts 195°
2026-04-30 05:21 -31.97780 115.95406 1566 ft 193 kts 196°
2026-04-30 05:21 -31.99192 115.94991 1975 ft 222 kts 194°
2026-04-30 05:22 -32.00730 115.94476 2764 ft 233 kts 203°
2026-04-30 05:22 -32.02016 115.93330 3754 ft 238 kts 233°
2026-04-30 05:22 -32.02523 115.91468 4640 ft 247 kts 268°
2026-04-30 05:22 -32.02343 115.89424 5579 ft 253 kts 278°
2026-04-30 05:23 -32.02039 115.87379 6588 ft 254 kts 278°
2026-04-30 05:23 -32.01739 115.85310 7466 ft 258 kts 277°
2026-04-30 05:23 -32.01448 115.83212 8383 ft 261 kts 277°
2026-04-30 05:23 -32.01162 115.81081 9247 ft 266 kts 276°
2026-04-30 05:24 -32.00877 115.78912 10122 ft 270 kts 276°
2026-04-30 05:24 -32.00585 115.76671 10603 ft 287 kts 276°
2026-04-30 05:24 -32.00273 115.74265 10922 ft 307 kts 277°
2026-04-30 05:24 -31.99940 115.71703 11212 ft 326 kts 277°
2026-04-30 05:25 -31.99588 115.68999 11619 ft 340 kts 277°
2026-04-30 05:25 -31.99204 115.66223 12236 ft 347 kts 279°
2026-04-30 05:25 -31.98694 115.63426 12953 ft 351 kts 281°
2026-04-30 05:25 -31.98156 115.60615 13730 ft 353 kts 281°
2026-04-30 05:26 -31.97622 115.57776 14434 ft 357 kts 281°
2026-04-30 05:26 -31.97090 115.54907 15121 ft 360 kts 281°
2026-04-30 05:26 -31.96418 115.52092 15802 ft 364 kts 289°
2026-04-30 05:26 -31.95346 115.49376 16524 ft 367 kts 295°
2026-04-30 05:27 -31.94158 115.46697 17215 ft 370 kts 295°
2026-04-30 05:27 -31.92856 115.44064 17904 ft 375 kts 302°
2026-04-30 05:27 -31.91100 115.41755 18548 ft 383 kts 316°
2026-04-30 05:27 -31.88826 115.40041 19114 ft 394 kts 331°
2026-04-30 05:28 -31.86234 115.38916 19687 ft 401 kts 338°